[[{"header":{"parameterUnit":"m.s-1","parameterCategory":1,"la1":30.2991,"la2":30.254,"lo1":-89.0895,"lo2":-89.0444,"dy":0.0017,"dx":0.0017,"nx":28,"ny":28,"refTime":"2025-05-19T21:00:00:Z","depth":0,"parameterNumber":2,"parameterNumberName":"U-component_of_WINDS"},"data":[0,0,0,0,0,0,0,0,0,0,0,0,0,0,0,0,0,0,0,0,0,0,0,0,0,0,0,0,0,0,0,0,0,0,0,0,0,0,0,0,0,0,0,0,0,0,0,0,0,0,0,0,0,0,0,0,0,0,3.9945,3.9946,0,4.0063,4.0064,4.0066,4.0036,4.0034,4.0032,4.0029,4.015,4.0155,4.016,0,0,0,0,0,0,0,0,0,0,0,0,0,3.9692,3.9697,3.9945,3.9946,3.9948,4.0063,4.0064,4.0066,4.0037,4.0034,4.0031,4.0028,4.0148,4.0154,4.0161,0,0,0,0,0,0,0,0,0,0,0,0,0,3.9805,3.9699,3.9945,3.9947,3.9948,4.0063,4.0065,4.0067,4.0037,4.0034,4.003,4.0027,4.0146,4.0154,4.0162,4.0281,0,0,4.0186,4.019,0,0,0,0,0,0,0,0,3.9799,3.9815,3.9945,3.9947,3.9949,4.0031,4.002,4.0138,4.0038,4.0003,4.0029,4.0025,4.0113,4.0124,4.0153,4.0286,4.0291,4.0187,4.0192,4.0195,4.0198,0,0,0,0,0,0,0,3.9791,3.981,3.9992,3.9947,3.9949,3.9942,3.9954,4.0042,4.0076,4.0006,4.0004,4.0019,4.0113,4.0146,4.0156,4.0293,4.0187,4.0194,4.0199,4.0202,4.0527,4.0531,0,0,0,0,0,0,3.9782,3.9803,3.9988,3.9995,3.9864,3.9949,3.9963,4.0008,4.0075,4.0082,4.0022,4.0017,4.0134,4.0147,4.016,4.0302,4.0195,4.0203,4.0207,4.0523,4.0528,4.0532,0,0,0,0,0,0,3.9777,3.9799,3.9983,3.9899,3.9922,3.9957,4.0009,4.0013,4.0045,4.0087,4.0093,4.0048,4.0132,4.0149,4.025,4.0305,4.0206,4.0214,4.0519,4.0525,4.053,4.0587,0,0,0,0,0,0,3.977,3.9797,3.9843,3.99,3.9926,4.0072,4.0012,4.0017,4.0059,4.0054,4.0113,4.012,4.013,4.0238,4.0258,4.0315,4.022,4.0514,4.0521,4.0528,4.058,4.0594,4.0606,0,0,0,0,0,3.9761,3.9855,3.9846,3.9868,3.9985,4.0075,4.009,4.01,4.0063,4.0109,4.0136,4.0118,4.0297,4.0249,4.0271,4.0331,4.051,4.0519,4.0527,4.0575,4.0591,4.0605,0,0,0,0,0,0,3.9804,3.9863,3.9853,3.9968,4.0017,4.007,4.0128,4.0118,4.0178,4.017,4.018,4.0194,4.0297,4.0324,4.027,4.0448,4.0398,4.0411,4.0426,4.0443,4.0455,4.0445,4.0227,0,0,0,0,0,3.9827,3.9896,3.9944,4.0041,4.0066,4.0093,4.0133,4.0136,4.0187,4.0207,4.0242,4.0291,4.0358,4.0402,4.0466,4.0585,4.0596,4.0636,4.0649,4.0659,4.067,4.0732,4.075,4.056,4.056,4.056,0,0,3.9875,3.9916,3.9959,4.005,4.0088,4.0159,4.0111,4.0188,4.024,4.0219,4.0316,4.0343,4.0399,4.0509,4.0559,4.0535,4.0725,4.067,4.0678,4.0683,4.0743,4.0761,4.0777,4.0566,4.0565,4.0564,0,0,3.9998,4.0037,4.0121,4.016,4.0218,4.0235,4.0255,4.031,4.0327,4.0425,4.041,4.0472,4.0588,4.0628,4.0663,4.08,4.0785,4.0821,4.0886,4.0947,4.0962,4.0975,4.1022,4.1039,4.0832,4.0832,4.0832,0,4.005,4.0156,4.0165,4.0243,4.0283,4.0268,4.0352,4.039,4.0466,4.0493,4.0466,4.0609,4.0646,4.0764,4.0797,4.0827,4.0849,4.0813,4.0959,4.0973,4.0985,4.103,4.1047,4.0836,4.0836,4.0835,4.0835,0,4.0216,4.029,4.0351,4.0424,4.0471,4.0552,4.0573,4.0619,4.0618,4.0638,4.0737,4.0781,4.0852,4.0881,4.0881,4.0998,4.0981,4.0957,4.0906,4.1007,4.1049,4.1066,4.0841,4.084,4.0839,4.0838,0,0,4.0369,4.0446,4.0468,4.05,4.0563,4.062,4.0699,4.0769,4.0808,4.0861,4.0927,4.1025,4.1001,4.1042,4.1046,4.11,4.1202,4.1068,4.1069,4.1089,4.1331,4.1348,4.1368,4.1193,4.1197,4.1199,4.1326,0,4.0496,4.0636,4.0646,4.0773,4.084,4.0826,4.0895,4.094,4.0961,4.102,4.1043,4.1111,4.1077,4.11,4.1153,4.1179,4.1251,4.117,4.1253,4.1256,4.1237,4.139,4.1409,4.1526,4.1343,4.1345,4.1347,0,4.0663,4.072,4.0853,4.0904,4.0932,4.0994,4.1058,4.1116,4.1167,4.1178,4.1222,4.1219,4.1299,4.1247,4.1357,4.1302,4.1337,4.1355,4.1359,4.1366,4.1306,4.1399,4.1564,4.158,4.1374,4.1372,4.137,0,4.0758,4.0868,4.0961,4.099,4.1053,4.1096,4.1124,4.1172,4.1213,4.1269,4.1295,4.136,4.1395,4.1445,4.1458,4.1419,4.1568,4.1517,4.1578,4.1577,4.1608,4.1605,4.1779,4.1634,4.1634,4.1634,4.1633,0,4.0897,4.0978,4.1005,4.1062,4.1152,4.1163,4.1251,4.1277,4.1319,4.138,4.1372,4.143,4.1445,4.1505,4.1517,4.1605,4.1622,4.1632,4.1633,4.1631,4.163,4.1653,4.1644,4.1638,4.1637,4.1636,4.1635,0,4.1018,4.1039,4.1139,4.1191,4.1205,4.1269,4.1312,4.1367,4.1386,4.1463,4.1482,4.1513,4.1583,4.1602,4.1686,4.1694,4.1797,4.1792,4.1779,4.1779,4.1837,4.1831,4.203,4.2055,4.1896,4.1898,4.1899,0,4.1104,4.1166,4.1224,4.1264,4.1294,4.1359,4.14,4.1413,4.1456,4.1518,4.1565,4.1634,4.1689,4.1802,4.1831,4.1895,4.189,4.1955,4.19,4.1895,4.1888,4.1883,4.1889,4.1965,4.1967,4.1968,4.197,0,4.1254,4.1261,4.1321,4.1385,4.1434,4.1485,4.1534,4.1567,4.1586,4.1635,4.1707,4.175,4.1835,4.1903,4.1967,4.1996,4.1985,4.1987,4.2004,4.2001,4.199,4.1995,4.1806,4.1982,4.1981,4.198,4.1979,4.1979,4.1359,4.1412,4.1461,4.1527,4.1565,4.161,4.1663,4.1689,4.1749,4.1819,4.1823,4.19,4.1948,4.2033,4.2065,4.2125,4.2105,4.213,4.2136,4.2142,4.2145,4.1983,4.2137,4.2136,4.2136,4.2136,4.2136,0,4.1506,4.1536,4.1598,4.1665,4.1718,4.1704,4.1757,4.1801,4.1869,4.1914,4.1969,4.205,4.2116,4.215,4.2215,4.2256,4.2253,4.2272,4.2268,4.2274,4.216,4.2138,4.2274,4.2274,4.2274,4.2273,4.2273,4.2273,4.1589,4.1678,4.1691,4.1798,4.1828,4.1903,4.1934,4.1975,4.2011,4.2102,4.2156,4.2178,4.2219,4.2287,4.2346,4.2354,4.2377,4.2399,4.2405,4.2297,4.2283,4.2269,4.2248,4.2405,4.2405,4.2513,4.2514,4.2515]},{"header":{"parameterUnit":"m.s-1","parameterCategory":1,"la1":30.2991,"la2":30.254,"lo1":-89.0895,"lo2":-89.0444,"dy":0.0017,"dx":0.0017,"nx":28,"ny":28,"refTime":"2025-05-19T21:00:00:Z","depth":0,"parameterNumber":3,"parameterNumberName":"V-component_of_WINDS"},"data":[0,0,0,0,0,0,0,0,0,0,0,0,0,0,0,0,0,0,0,0,0,0,0,0,0,0,0,0,0,0,0,0,0,0,0,0,0,0,0,0,0,0,0,0,0,0,0,0,0,0,0,0,0,0,0,0,0,0,5.5659,5.566,0,5.5827,5.5829,5.583,5.582,5.5818,5.5816,5.5813,5.5982,5.5989,5.5995,0,0,0,0,0,0,0,0,0,0,0,0,0,5.5325,5.5331,5.5658,5.5661,5.5663,5.5826,5.5829,5.5831,5.5821,5.5818,5.5815,5.5812,5.598,5.5988,5.5996,0,0,0,0,0,0,0,0,0,0,0,0,0,5.5479,5.5333,5.5658,5.5677,5.5681,5.5826,5.5829,5.5832,5.5821,5.5818,5.5814,5.5811,5.5977,5.5987,5.5997,5.6133,0,0,5.6028,5.6032,0,0,0,0,0,0,0,0,5.547,5.5491,5.5672,5.5676,5.568,5.5799,5.5773,5.5932,5.5822,5.5768,5.5813,5.5809,5.5924,5.5938,5.5978,5.6141,5.6148,5.6029,5.6035,5.6039,5.6042,0,0,0,0,0,0,0,5.546,5.5484,5.5725,5.5675,5.568,5.5676,5.5694,5.5803,5.5864,5.5772,5.5772,5.5792,5.5925,5.5968,5.5981,5.615,5.6029,5.6038,5.6044,5.6048,5.6432,5.6436,0,0,0,0,0,0,5.5445,5.5475,5.5719,5.573,5.5564,5.5685,5.5705,5.5764,5.5863,5.5875,5.5795,5.5791,5.5952,5.597,5.5987,5.6152,5.6039,5.6049,5.6055,5.6428,5.6433,5.6437,0,0,0,0,0,0,5.5438,5.5467,5.5713,5.5603,5.5634,5.5695,5.5761,5.577,5.5812,5.588,5.5891,5.5828,5.595,5.5973,5.6097,5.6158,5.6053,5.6063,5.6423,5.6429,5.6435,5.6484,0,0,0,0,0,0,5.5429,5.5465,5.5518,5.5604,5.564,5.5821,5.5765,5.5776,5.583,5.5827,5.5914,5.5924,5.5949,5.6082,5.6107,5.617,5.607,5.6418,5.6426,5.6433,5.6477,5.6491,5.6502,0,0,0,0,0,5.5417,5.5524,5.5521,5.555,5.5707,5.5824,5.5844,5.5871,5.5835,5.5889,5.5932,5.5922,5.6147,5.6094,5.6123,5.619,5.6414,5.6424,5.6433,5.6471,5.6488,5.6502,0,0,0,0,0,0,5.5442,5.5536,5.5533,5.5671,5.574,5.5822,5.589,5.5889,5.5968,5.5961,5.599,5.601,5.6134,5.6174,5.6114,5.6326,5.6276,5.6291,5.6295,5.6312,5.6324,5.6312,5.6079,0,0,0,0,0,5.5464,5.5553,5.5629,5.5744,5.5778,5.5829,5.588,5.5895,5.5967,5.5996,5.6048,5.6117,5.6204,5.626,5.6343,5.6482,5.6501,5.6542,5.6555,5.6565,5.6578,5.6654,5.6674,5.6468,5.6468,5.6468,0,0,5.551,5.5572,5.5626,5.575,5.5805,5.5895,5.5853,5.595,5.6016,5.601,5.613,5.6171,5.625,5.6382,5.6443,5.6419,5.6639,5.6577,5.6585,5.6593,5.6666,5.6685,5.6702,5.6474,5.6473,5.6472,0,0,5.564,5.5696,5.5798,5.5854,5.5938,5.5971,5.5995,5.6078,5.6105,5.6226,5.6224,5.6302,5.645,5.6507,5.6555,5.6705,5.6698,5.6731,5.6798,5.6872,5.6888,5.6903,5.6956,5.6975,5.6744,5.6744,5.6744,0,5.5686,5.5822,5.585,5.5948,5.6002,5.6002,5.6104,5.6157,5.6263,5.63,5.6273,5.6459,5.6512,5.6657,5.6693,5.6732,5.676,5.6721,5.6884,5.6899,5.6913,5.6964,5.6984,5.6747,5.6747,5.6747,5.6746,0,5.5875,5.5969,5.6041,5.6145,5.6207,5.6307,5.6349,5.6408,5.6417,5.6452,5.6575,5.6639,5.6735,5.677,5.678,5.6916,5.6899,5.6878,5.6828,5.6935,5.6984,5.7004,5.6752,5.6751,5.675,5.6749,0,0,5.6026,5.6144,5.617,5.6217,5.6309,5.6382,5.6481,5.6576,5.6626,5.6699,5.6782,5.6908,5.6888,5.6943,5.6958,5.7023,5.7138,5.6993,5.6996,5.7018,5.7291,5.7307,5.7329,5.7133,5.7137,5.714,5.7285,0,5.6164,5.6342,5.6369,5.6524,5.6611,5.6612,5.6698,5.6763,5.6798,5.6876,5.6914,5.7003,5.6971,5.7003,5.7067,5.711,5.7193,5.71,5.721,5.7214,5.719,5.7355,5.7372,5.7505,5.7304,5.7307,5.7309,0,5.635,5.643,5.6594,5.6674,5.6712,5.6789,5.6878,5.6953,5.7026,5.7047,5.7108,5.7116,5.7217,5.7163,5.7302,5.7238,5.7285,5.7313,5.7318,5.733,5.7268,5.737,5.7548,5.7568,5.7339,5.7337,5.7335,0,5.6443,5.6591,5.6708,5.6749,5.6845,5.6899,5.6942,5.7012,5.7067,5.7145,5.718,5.7268,5.7316,5.7383,5.7414,5.7371,5.7551,5.7499,5.757,5.7569,5.7608,5.7605,5.7796,5.7638,5.7638,5.7637,5.7637,0,5.6596,5.6696,5.6752,5.6824,5.6936,5.6966,5.7075,5.7116,5.7178,5.7257,5.7263,5.7336,5.7373,5.7452,5.7476,5.7588,5.7609,5.7628,5.7633,5.7628,5.7625,5.7659,5.765,5.7643,5.7642,5.764,5.764,0,5.6719,5.676,5.6888,5.6969,5.6992,5.7071,5.714,5.7209,5.7244,5.7344,5.7369,5.7423,5.7516,5.7554,5.7667,5.7684,5.7812,5.781,5.7787,5.7789,5.7858,5.7851,5.8076,5.8107,5.7929,5.7931,5.7932,0,5.6813,5.689,5.698,5.7034,5.7079,5.7166,5.7222,5.7254,5.7313,5.7402,5.7461,5.7554,5.763,5.7779,5.7827,5.7914,5.7914,5.7987,5.7927,5.7919,5.7915,5.791,5.7918,5.7998,5.8,5.8002,5.8003,0,5.6976,5.6993,5.7075,5.7164,5.7232,5.7303,5.7373,5.7416,5.7459,5.7524,5.762,5.7679,5.7796,5.7888,5.7978,5.802,5.8019,5.8021,5.8042,5.8037,5.8021,5.8031,5.7817,5.8016,5.8015,5.8014,5.8013,5.8012,5.7088,5.7156,5.723,5.7321,5.7377,5.7442,5.7512,5.7555,5.7636,5.7734,5.7748,5.7851,5.7921,5.8042,5.8088,5.8167,5.8148,5.8179,5.8186,5.8193,5.8198,5.8008,5.8184,5.8183,5.8183,5.8183,5.8183,0,5.725,5.7298,5.7382,5.748,5.7551,5.7544,5.7621,5.7681,5.7772,5.7838,5.7914,5.8024,5.8113,5.8169,5.8258,5.8311,5.8313,5.8334,5.833,5.834,5.821,5.8183,5.8331,5.8331,5.8331,5.8331,5.8331,5.8331,5.7344,5.746,5.7485,5.7628,5.7675,5.7777,5.7821,5.788,5.7934,5.8057,5.8132,5.8168,5.823,5.8324,5.8405,5.8419,5.8452,5.8474,5.8487,5.8364,5.8349,5.8334,5.8309,5.8481,5.8482,5.861,5.8611,5.8612]}]]